CW9638 Weather Reports


time (UTC)temp
C
wind
direction
speed
KPH
gust
KPH
rain 1hr
cm
rain 24hr
cm
rain mn
cm
humidity
%
barometer
mb
20190323203002 10 110 11.3 20.9 0.00 0.00 0.00 63 1014.7
20190323202504 10 120 12.9 20.9 0.00 0.00 0.00 62 1015.1
20190323202003 10 119 12.9 17.7 0.00 0.00 0.00 62 1015.1
20190323201718 10 132 11.3 17.7 0.00 0.00 0.00 62 1015.1
20190323201501 10 131 11.3 17.7 0.00 0.00 0.00 62 1015.1
20190323201003 10 126 14.5 19.3 0.00 0.00 0.00 61 1015.2
20190323200604 10 124 11.3 17.7 0.00 0.00 0.00 62 1015.2
20190323200208 10 120 11.3 19.3 0.00 0.00 0.00 61 1015.2
20190323195600 10 139 14.5 19.3 0.00 0.00 0.00 61 1015.5
20190323195104 10 123 11.3 19.3 0.00 0.00 0.00 62 1015.5
20190323194636 10 128 9.7 17.7 0.00 0.00 0.00 62 1015.5
20190323194102 10 111 12.9 19.3 0.00 0.00 0.00 62 1015.7
20190323193559 10 120 11.3 19.3 0.00 0.00 0.00 62 1015.7
20190323193144 10 128 8.0 11.3 0.00 0.00 0.00 62 1015.7
20190323192602 10 130 8.0 11.3 0.00 0.00 0.00 62 1016.1
20190323192105 10 126 8.0 11.3 0.00 0.00 0.00 63 1016.1
20190323191645 10 144 6.4 14.5 0.00 0.00 0.00 62 1016.1
20190323191057 10 159 8.0 19.3 0.00 0.00 0.00 62 1016.3
20190323190604 10 137 9.7 19.3 0.00 0.00 0.00 62 1016.3
20190323190129 10 136 9.7 24.1 0.00 0.00 0.00 63 1016.3
20190323185557 10 119 12.9 24.1 0.00 0.00 0.00 62 1016.2
20190323185100 10 128 14.5 22.5 0.00 0.00 0.00 62 1016.2
20190323184901 10 118 12.9 20.9 0.00 0.00 0.00 62 1016.2
20190323184056 10 104 12.9 22.5 0.00 0.00 0.00 62 1016.2
20190323183556 10 120 12.9 19.3 0.00 0.00 0.00 64 1016.2
20190323183130 10 126 11.3 17.7 0.00 0.00 0.00 67 1016.2
20190323182552 10 92 11.3 22.5 0.00 0.00 0.00 66 1016.5
20190323182056 10 124 11.3 17.7 0.00 0.00 0.00 68 1016.5
20190323181606 9 109 8.0 11.3 0.00 0.00 0.00 69 1016.5
20190323181048 8 95 6.4 12.9 0.00 0.00 0.00 71 1016.5
20190323180547 8 95 8.0 12.9 0.00 0.00 0.00 72 1016.5
20190323180156 8 93 9.7 12.9 0.00 0.00 0.00 74 1016.5
20190323175544 8 92 8.0 11.3 0.00 0.00 0.00 74 1016.8
20190323175044 8 92 8.0 11.3 0.00 0.00 0.00 74 1016.8
20190323174557 8 109 4.8 11.3 0.00 0.00 0.00 74 1016.8
20190323174043 8 109 4.8 8.0 0.00 0.00 0.00 74 1017.1
20190323173544 7 109 4.8 8.0 0.00 0.00 0.00 74 1017.1
20190323173143 7 109 3.2 8.0 0.00 0.00 0.00 74 1017.1
20190323172542 7 109 4.8 8.0 0.00 0.00 0.00 73 1017.4
20190323172041 7 109 4.8 11.3 0.00 0.00 0.00 72 1017.4
20190323171617 7 111 4.8 12.9 0.00 0.00 0.00 72 1017.4
20190323171040 7 107 8.0 12.9 0.00 0.00 0.00 72 1017.4
20190323170543 7 100 8.0 14.5 0.00 0.00 0.00 75 1017.4
20190323170150 7 101 9.7 17.7 0.00 0.00 0.00 75 1017.4
20190323165537 7 91 12.9 17.7 0.00 0.00 0.00 76 1017.3
20190323165041 7 96 9.7 17.7 0.00 0.00 0.00 76 1017.3
20190323164631 7 81 11.3 17.7 0.00 0.00 0.00 76 1017.3
20190323164035 7 72 11.3 16.1 0.00 0.00 0.00 77 1017.9
20190323163542 6 76 12.9 14.5 0.00 0.00 0.00 76 1017.9
20190323163131 6 82 9.7 16.1 0.00 0.00 0.00 76 1017.9
20190323162541 7 80 11.3 16.1 0.00 0.00 0.00 76 1018.0
20190323162043 6 79 9.7 14.5 0.00 0.00 0.00 76 1018.0
20190323161553 6 78 9.7 14.5 0.00 0.00 0.00 77 1018.0
20190323161041 6 88 9.7 14.5 0.00 0.00 0.00 78 1018.4
20190323160533 6 103 4.8 9.7 0.00 0.00 0.00 77 1018.4
20190323160122 6 103 4.8 9.7 0.00 0.00 0.00 76 1018.4
20190323155537 6 103 6.4 9.7 0.00 0.00 0.00 76 1018.5
20190323155032 6 128 3.2 6.4 0.00 0.00 0.00 75 1018.5
20190323154614 6 128 3.2 4.8 0.00 0.00 0.00 75 1018.5
20190323154031 6 128 1.6 4.8 0.00 0.00 0.00 74 1018.6
20190323153532 6 128 1.6 4.8 0.00 0.00 0.00 75 1018.6
20190323153107 6 129 3.2 8.0 0.00 0.00 0.00 75 1018.6
20190323152533 6 128 3.2 9.7 0.00 0.00 0.00 73 1018.5
20190323152030 6 131 4.8 9.7 0.00 0.00 0.00 71 1018.5
20190323151619 6 136 3.2 9.7 0.00 0.00 0.00 72 1018.5
20190323151030 7 136 4.8 12.9 0.00 0.00 0.00 71 1018.4
20190323150534 7 153 8.0 12.9 0.00 0.00 0.00 68 1018.4
20190323150121 7 132 9.7 14.5 0.00 0.00 0.00 65 1018.4
20190323145532 7 136 8.0 14.5 0.00 0.00 0.00 65 1018.4
20190323145029 7 156 9.7 14.5 0.00 0.00 0.00 65 1018.4
20190323144552 7 130 3.2 12.9 0.00 0.00 0.00 66 1018.4
20190323144027 7 123 8.0 12.9 0.00 0.00 0.00 66 1017.9
20190323143531 7 120 8.0 14.5 0.00 0.00 0.00 65 1017.9
20190323143054 7 121 8.0 14.5 0.00 0.00 0.00 65 1017.9
20190323142526 7 124 8.0 14.5 0.00 0.00 0.00 65 1017.8
20190323142026 7 123 6.4 14.5 0.00 0.00 0.00 66 1017.8
20190323141557 6 129 6.4 16.1 0.00 0.00 0.00 66 1017.8
20190323141026 6 128 9.7 16.1 0.00 0.00 0.00 66 1017.8
20190323140529 6 114 6.4 16.1 0.00 0.00 0.00 67 1017.8
20190323140038 6 114 6.4 16.1 0.00 0.00 0.00 67 1017.8
20190323135527 6 103 8.0 16.1 0.00 0.00 0.00 67 1017.9
20190323135025 6 115 6.4 16.1 0.00 0.00 0.00 67 1017.9
20190323134641 6 118 4.8 20.9 0.00 0.00 0.00 67 1017.9
20190323134024 6 124 8.0 20.9 0.00 0.00 0.00 66 1017.8
20190323133524 6 120 11.3 22.5 0.00 0.00 0.00 66 1017.8
20190323133047 6 121 12.9 22.5 0.00 0.00 0.00 65 1017.8
20190323132523 6 119 16.1 22.5 0.00 0.00 0.00 66 1017.6
20190323132028 6 133 12.9 17.7 0.00 0.00 0.00 67 1017.6
20190323131559 6 132 12.9 19.3 0.00 0.00 0.00 68 1017.6
20190323131023 6 116 12.9 20.9 0.00 0.00 0.00 67 1017.7
20190323130527 6 122 12.9 20.9 0.00 0.00 0.00 68 1017.7
20190323130038 5 132 12.9 20.9 0.00 0.00 0.00 69 1017.7
20190323125521 5 122 12.9 17.7 0.00 0.00 0.00 70 1017.9
20190323125024 5 130 11.3 17.7 0.00 0.00 0.00 70 1017.9
20190323124540 5 128 8.0 17.7 0.00 0.00 0.00 71 1017.9
20190323124018 5 133 9.7 17.7 0.00 0.00 0.00 71 1018.0
20190323123517 4 130 8.0 11.3 0.00 0.00 0.00 72 1018.0
20190323123027 4 130 6.4 9.7 0.00 0.00 0.00 73 1018.0
20190323122517 4 130 4.8 8.0 0.00 0.00 0.00 73 1017.8
20190323122015 4 130 3.2 6.4 0.00 0.00 0.00 73 1017.8
20190323121534 4 130 4.8 9.7 0.00 0.00 0.00 73 1017.8
20190323121013 4 130 4.8 11.3 0.00 0.00 0.00 73 1018.0
20190323120514 4 130 6.4 14.5 0.00 0.00 0.00 73 1018.0
20190323120019 4 128 8.0 14.5 0.00 0.00 0.00 73 1018.0
20190323115513 4 129 8.0 16.1 0.00 0.00 0.00 72 1017.8
20190323115013 5 128 8.0 16.1 0.00 0.00 0.00 72 1017.8
20190323114515 5 124 8.0 14.5 0.00 0.00 0.00 72 1017.8
20190323114015 5 122 8.0 12.9 0.00 0.00 0.00 72 1017.8
20190323113510 5 108 8.0 12.9 0.00 0.00 0.00 72 1017.8
20190323113053 5 123 4.8 12.9 0.00 0.00 0.00 72 1017.8
20190323112509 5 118 6.4 12.9 0.00 0.00 0.00 72 1018.0
20190323112012 5 117 8.0 12.9 0.00 0.00 0.00 72 1018.0
20190323111521 5 132 6.4 11.3 0.00 0.00 0.00 72 1018.0
20190323111007 5 136 3.2 8.0 0.00 0.00 0.00 71 1017.9
20190323110512 5 136 4.8 8.0 0.00 0.00 0.00 71 1017.9
20190323110008 5 136 4.8 9.7 0.00 0.00 0.00 71 1017.9
20190323105506 5 136 4.8 9.7 0.00 0.00 0.00 70 1018.1
20190323105004 5 136 6.4 9.7 0.00 0.00 0.00 70 1018.1
20190323104544 5 136 4.8 9.7 0.00 0.00 0.00 69 1018.1
20190323104005 5 136 4.8 11.3 0.00 0.00 0.00 69 1018.1
20190323103504 5 132 8.0 12.9 0.00 0.00 0.00 68 1018.1
20190323103006 6 128 6.4 19.3 0.00 0.00 0.00 68 1018.1
20190323102006 5 123 8.0 16.1 0.00 0.00 0.00 70 1017.8
20190323101503 5 101 8.0 16.1 0.00 0.00 0.00 69 1017.8
20190323101002 6 112 8.0 16.1 0.00 0.00 0.00 69 1018.1
20190323100505 6 115 9.7 16.1 0.00 0.00 0.00 68 1018.1
20190323100001 6 114 11.3 16.1 0.00 0.00 0.00 69 1018.1
20190323095600 5 114 11.3 16.1 0.00 0.00 0.00 69 1018.2
20190323095101 5 122 9.7 16.1 0.00 0.00 0.00 70 1018.2
20190323094709 5 114 6.4 17.7 0.00 0.00 0.00 70 1018.2
20190323094058 5 115 6.4 17.7 0.00 0.00 0.00 70 1018.6
20190323093602 5 110 6.4 14.5 0.00 0.00 0.00 71 1018.6
20190323093135 5 125 4.8 11.3 0.00 0.00 0.00 71 1018.6
20190323092556 5 127 3.2 8.0 0.00 0.00 0.00 70 1019.1
20190323092056 5 127 1.6 4.8 0.00 0.00 0.00 70 1019.1
20190323091721 5 127 1.6 4.8 0.00 0.00 0.00 70 1019.1
20190323091055 5 127 0.0 4.8 0.00 0.00 0.00 71 1019.2
20190323090555 5 127 0.0 0.0 0.00 0.00 0.00 71 1019.2
20190323090203 5 127 0.0 0.0 0.00 0.00 0.00 71 1019.2
20190323085554 5 127 0.0 0.0 0.00 0.00 0.00 71 1019.3
20190323085054 5 127 0.0 0.0 0.00 0.00 0.00 70 1019.3
20190323084733 5 127 0.0 0.0 0.00 0.00 0.00 69 1019.3
20190323084052 5 127 0.0 3.2 0.00 0.00 0.00 68 1019.7
20190323083553 5 127 0.0 3.2 0.00 0.00 0.00 67 1019.7
20190323083126 6 127 1.6 3.2 0.00 0.00 0.00 66 1019.7
20190323082552 6 127 0.0 1.6 0.00 0.00 0.00 66 1019.4
20190323082047 6 127 0.0 3.2 0.00 0.00 0.00 65 1019.4
20190323081630 6 127 0.0 6.4 0.00 0.00 0.00 65 1019.4
20190323081046 6 127 1.6 6.4 0.00 0.00 0.00 64 1019.5
20190323080546 6 127 3.2 8.0 0.00 0.00 0.00 64 1019.5
20190323080138 6 127 4.8 9.7 0.00 0.00 0.00 65 1019.5
20190323075545 6 127 4.8 12.9 0.00 0.00 0.00 65 1019.4
20190323075045 6 127 6.4 12.9 0.00 0.00 0.00 64 1019.4
20190323074644 6 126 8.0 14.5 0.00 0.00 0.00 63 1019.4
20190323074048 6 130 8.0 16.1 0.00 0.00 0.00 63 1019.2
20190323073544 6 125 9.7 16.1 0.00 0.00 0.00 63 1019.2
20190323073154 6 118 9.7 14.5 0.00 0.00 0.00 63 1019.2
20190323072548 6 126 6.4 12.9 0.00 0.00 0.00 63 1019.2
20190323072043 6 120 6.4 14.5 0.00 0.00 0.00 63 1019.2
20190323071624 6 117 9.7 17.7 0.00 0.00 0.00 63 1019.2
20190323071048 6 121 11.3 19.3 0.00 0.00 0.00 62 1018.9
20190323070548 6 107 9.7 19.3 0.00 0.00 0.00 62 1018.9
20190323070136 6 115 9.7 19.3 0.00 0.00 0.00 63 1018.9
20190323065547 6 113 12.9 19.3 0.00 0.00 0.00 63 1019.0
20190323065041 6 115 11.3 17.7 0.00 0.00 0.00 63 1019.0
20190323064612 6 115 9.7 16.1 0.00 0.00 0.00 63 1019.0
20190323064046 6 113 8.0 16.1 0.00 0.00 0.00 63 1019.2
20190323063541 6 114 8.0 16.1 0.00 0.00 0.00 63 1019.2
20190323063123 6 115 8.0 14.5 0.00 0.00 0.00 63 1019.2
20190323062541 6 111 8.0 14.5 0.00 0.00 0.00 63 1019.2
20190323062041 6 109 6.4 12.9 0.00 0.00 0.00 63 1019.2
20190323061610 6 109 4.8 11.3 0.00 0.00 0.00 63 1019.2
20190323061036 6 109 6.4 12.9 0.00 0.00 0.00 63 1019.3
20190323060542 6 109 6.4 12.9 0.00 0.00 0.00 62 1019.3
20190323060206 6 111 4.8 11.3 0.00 0.00 0.00 62 1019.3
20190323055535 6 111 4.8 11.3 0.00 0.00 0.00 62 1019.2
20190323055039 6 111 4.8 11.3 0.00 0.00 0.00 62 1019.2
20190323054552 6 111 4.8 11.3 0.00 0.00 0.00 63 1019.2
20190323054035 6 111 6.4 11.3 0.00 0.00 0.00 63 1019.3
20190323053533 6 111 4.8 11.3 0.00 0.00 0.00 63 1019.3
20190323053122 6 111 4.8 8.0 0.00 0.00 0.00 63 1019.3
20190323052531 7 111 4.8 11.3 0.00 0.00 0.00 63 1019.3
20190323052033 7 111 6.4 12.9 0.00 0.00 0.00 63 1019.3
20190323051616 7 111 6.4 12.9 0.00 0.00 0.00 62 1019.3
20190323051033 7 111 6.4 12.9 0.00 0.00 0.00 62 1019.3
20190323050530 7 111 4.8 11.3 0.00 0.00 0.00 62 1019.3
20190323050113 7 111 6.4 11.3 0.00 0.00 0.00 61 1019.3
20190323045529 7 111 6.4 12.9 0.00 0.00 0.00 61 1019.4
20190323045029 7 111 8.0 12.9 0.00 0.00 0.00 60 1019.4
20190323044538 7 107 6.4 11.3 0.00 0.00 0.00 60 1019.4
20190323044027 7 103 6.4 12.9 0.00 0.00 0.00 60 1019.4
20190323043532 7 101 8.0 12.9 0.00 0.00 0.00 61 1019.4
20190323043109 6 86 6.4 9.7 0.00 0.00 0.00 62 1019.4
20190323042532 6 86 4.8 8.0 0.00 0.00 0.00 65 1019.4
20190323042027 6 86 0.0 3.2 0.00 0.00 0.00 66 1019.4
20190323041540 6 86 0.0 0.0 0.00 0.00 0.00 67 1019.4
20190323041028 6 86 0.0 0.0 0.00 0.00 0.00 68 1019.3
20190323040527 6 86 0.0 3.2 0.00 0.00 0.00 66 1019.3
20190323040041 6 86 0.0 8.0 0.00 0.00 0.00 66 1019.3
20190323035526 6 86 3.2 8.0 0.00 0.00 0.00 66 1019.3
20190323035033 6 86 0.0 0.0 0.00 0.00 0.00 66 1019.3
20190323034555 6 86 0.0 0.0 0.00 0.00 0.00 68 1019.3
20190323034029 6 86 0.0 0.0 0.00 0.00 0.00 69 1019.3
20190323033529 6 86 0.0 0.0 0.00 0.00 0.00 69 1019.3
20190323033101 6 86 0.0 0.0 0.00 0.00 0.00 70 1019.3
20190323032520 6 86 0.0 0.0 0.00 0.00 0.00 69 1019.2
20190323032018 6 86 0.0 0.0 0.00 0.00 0.00 70 1019.2
20190323031541 6 86 0.0 0.0 0.00 0.00 0.00 70 1019.2
20190323031018 6 86 0.0 0.0 0.00 0.00 0.00 71 1019.2
20190323030518 6 86 0.0 0.0 0.00 0.00 0.00 73 1019.2
20190323030027 6 86 0.0 0.0 0.00 0.00 0.00 71 1019.2
20190323025518 6 86 0.0 0.0 0.00 0.00 0.00 70 1018.9
20190323025022 6 86 0.0 0.0 0.00 0.00 0.00 68 1018.9
20190323024541 6 86 0.0 0.0 0.00 0.00 0.00 65 1018.9
20190323024023 6 86 0.0 0.0 0.00 0.00 0.00 62 1018.8
20190323023518 6 86 0.0 0.0 0.00 0.00 0.00 60 1018.8
20190323023108 7 86 0.0 0.0 0.00 0.00 0.00 60 1018.8
20190323022517 7 86 0.0 0.0 0.00 0.00 0.00 59 1018.8
20190323022019 7 86 0.0 0.0 0.00 0.00 0.00 59 1018.8
20190323021526 7 86 0.0 0.0 0.00 0.00 0.00 58 1018.8
20190323021021 7 86 0.0 1.6 0.00 0.00 0.00 56 1018.8
20190323020517 7 86 0.0 1.6 0.00 0.00 0.00 55 1018.8
20190323020034 7 86 0.0 0.0 0.00 0.00 0.00 54 1018.8
20190323015521 7 86 0.0 0.0 0.00 0.00 0.00 53 1018.7
20190323015017 7 86 0.0 0.0 0.00 0.00 0.00 52 1018.7
20190323014550 7 86 0.0 1.6 0.00 0.00 0.00 52 1018.7
20190323014020 7 86 0.0 1.6 0.00 0.00 0.00 52 1018.5
20190323013516 7 86 0.0 0.0 0.00 0.00 0.00 51 1018.5
20190323013039 7 86 0.0 0.0 0.00 0.00 0.00 51 1018.5
20190323012515 8 86 0.0 0.0 0.00 0.00 0.00 51 1018.6
20190323012019 8 86 0.0 0.0 0.00 0.00 0.00 50 1018.6
20190323011558 8 86 0.0 0.0 0.00 0.00 0.00 52 1018.6
20190323011017 8 86 0.0 0.0 0.00 0.00 0.00 51 1018.5
20190323010514 9 86 0.0 1.6 0.00 0.00 0.00 48 1018.5
20190323010045 10 86 0.0 1.6 0.00 0.00 0.00 48 1018.5
20190323005520 11 86 0.0 3.2 0.00 0.00 0.00 42 1018.6
20190323005014 11 86 1.6 3.2 0.00 0.00 0.00 43 1018.6
20190323004550 11 86 1.6 3.2 0.00 0.00 0.00 41 1018.6
20190323004014 12 86 0.0 3.2 0.00 0.00 0.00 38 1018.7
20190323003517 12 86 0.0 3.2 0.00 0.00 0.00 39 1018.7
20190323003037 12 86 0.0 4.8 0.00 0.00 0.00 37 1018.7
20190323002513 12 86 3.2 4.8 0.00 0.00 0.00 39 1018.6
20190323002012 12 86 3.2 4.8 0.00 0.00 0.00 40 1018.6
20190323001545 12 86 3.2 4.8 0.00 0.00 0.00 42 1018.6
20190323001012 12 86 3.2 4.8 0.00 0.00 0.00 40 1018.8
20190323000513 13 86 3.2 4.8 0.00 0.00 0.00 40 1018.8
20190323000018 13 86 3.2 4.8 0.00 0.00 0.00 40 1018.8
20190322235511 13 86 1.6 4.8 0.00 0.00 0.00 39 1018.8
20190322235011 13 86 0.0 4.8 0.00 0.00 0.00 39 1018.8
20190322234527 14 86 1.6 8.0 0.00 0.00 0.00 36 1018.8
20190322234017 14 86 3.2 14.5 0.00 0.00 0.00 34 1018.8
20190322233511 14 86 6.4 14.5 0.00 0.00 0.00 34 1018.8
20190322233035 14 96 6.4 9.7 0.00 0.00 0.00 33 1018.8
20190322232514 15 96 4.8 9.7 0.00 0.00 0.00 32 1019.0
20190322232010 15 96 3.2 9.7 0.00 0.00 0.00 32 1019.0
20190322231546 15 96 4.8 9.7 0.00 0.00 0.00 33 1019.0
20190322231011 15 84 4.8 8.0 0.00 0.00 0.00 31 1019.3
20190322230512 14 84 3.2 8.0 0.00 0.00 0.00 33 1019.3
20190322230013 14 84 3.2 8.0 0.00 0.00 0.00 32 1019.3
20190322225510 14 84 1.6 4.8 0.00 0.00 0.00 34 1019.3
20190322225008 14 84 0.0 3.2 0.00 0.00 0.00 34 1019.3
20190322224517 14 84 1.6 8.0 0.00 0.00 0.00 33 1019.3
20190322224012 14 84 3.2 9.7 0.00 0.00 0.00 33 1019.3
20190322223508 14 84 4.8 9.7 0.00 0.00 0.00 34 1019.3
20190322223033 14 84 3.2 4.8 0.00 0.00 0.00 33 1019.3
20190322222506 14 84 1.6 9.7 0.00 0.00 0.00 33 1019.2
20190322222009 14 84 3.2 20.9 0.00 0.00 0.00 33 1019.2
20190322221508 14 89 9.7 16.1 0.00 0.00 0.00 36 1019.2
20190322221008 14 79 9.7 12.9 0.00 0.00 0.00 35 1019.3
20190322220505 14 83 6.4 14.5 0.00 0.00 0.00 35 1019.3
20190322220004 14 74 11.3 14.5 0.00 0.00 0.00 34 1019.3
20190322215503 14 76 6.4 12.9 0.00 0.00 0.00 35 1019.4
20190322215003 14 80 8.0 14.5 0.00 0.00 0.00 36 1019.4
20190322214504 14 80 9.7 16.1 0.00 0.00 0.00 35 1019.4
20190322214003 14 71 11.3 16.1 0.00 0.00 0.00 35 1019.6
20190322213502 14 94 9.7 16.1 0.00 0.00 0.00 35 1019.6
20190322213005 14 80 9.7 16.1 0.00 0.00 0.00 35 1019.6
20190322212501 14 92 6.4 17.7 0.00 0.00 0.00 38 1019.6
20190322212003 14 82 9.7 17.7 0.00 0.00 0.00 35 1019.6
20190322211503 14 80 9.7 16.1 0.00 0.00 0.00 36 1019.6
20190322211100 14 73 12.9 17.7 0.00 0.00 0.00 39 1019.8
20190322210601 14 84 12.9 19.3 0.00 0.00 0.00 37 1019.8
20190322210205 13 77 12.9 19.3 0.00 0.00 0.00 34 1019.8
20190322205604 13 86 14.5 20.9 0.00 0.00 0.00 37 1019.9
20190322205059 13 76 11.3 17.7 0.00 0.00 0.00 37 1019.9
20190322204648 13 76 11.3 17.7 0.00 0.00 0.00 37 1019.9
20190322204057 13 90 14.5 17.7 0.00 0.00 0.00 33 1020.1
20190322203558 13 92 12.9 16.1 0.00 0.00 0.00 30 1020.1